Location: Madrid
(40.4000°N, 3.6830°W)
Time: 15:34:37
(UTC+02:00)

ISS - Pass Details

Date: 12 September 2019
Orbit: 411 x 421 km, 51.6° (Epoch: 18 September)

Event Time Altitude Azimuth Distance (km) Brightness Sun altitude
Exits shadow 06:16:52 12° 328° (NNW) 1,362 -1.3 -18.4°
Maximum altitude 06:19:27 28° 26° (NNE) 810 -1.8 -17.9°
Drops below altitude 10° 06:22:24 10° 88° (E) 1,490 0.1 -17.4°
Sets 06:24:41 0° 100° (E) 2,353 1.1 -17.0°
